星链-32124 (STARLINK-32124)

导读 | 星芒AI

STARLINK-32124 是 SpaceX Starlink 项目中的一颗低轨通信卫星,旨在为全球用户提供高速互联网服务。该卫星采用可重复使用设计,具备先进的通信技术和星间链路功能,以提升网络覆盖和传输效率。作为 Starlink 卫星群的一部分,它运行在约 550 公里的轨道高度,助力实现 SpaceX 构建全球宽带网络的目标。

基本信息
目录编号:
60298
目录名称:
STARLINK-32124
国际标识:
2024-132W
轨道中心:
EARTH
卫星名称:
星链-32124 (STARLINK-32124)
卫星全名:
星链-32124 (STARLINK-32124)
卫星状态:
在轨 (已飞行510 天)
发射日期:
2024-07-28 UTC
国别 :
美国 (US)
星等 :
--
轨道信息
数据来源 国际轨道数据
星历时间: 2025-12-19T19:01:36+0800
20小时前
查看轨道信息
半长轴: 6853.413km
偏心率: 0.0001185
轨道倾角: 53.160°
近地点辐角 86.382°
升交点赤经 65.317°
平近点角 273.732°
近地点: 474.463km
远地点: 476.089km
周期: 94.107分钟
每日圈数: 15.301799
详细信息
卫星平台:
Starlink v2.0 mini
运营商:
太空探索技术公司
运营商所在国:
美国
制造商(研发单位):
太空探索技术公司
制造商所在国:
美国
使用方式:
暂无
卫星简介
星链(Starlink)计划是由太空探索技术公司(SpaceX)提出的一个巨型低轨卫星互联网星座项目,计划在2019年至2024年间在太空搭建由约1.2万颗卫星组成的“星链”网络,其中1584颗将部署在地球上空550千米处的近地轨道,并从2020年开始工作。该卫星仍在工作。
2D轨道图
3D轨道图
轨道高度分析图
轨道倾角分析图
轨道综合分析图
查看轨道综合分析图